STARLINK-32021, 60148

Orbit data source: Space-Track

STARLINK-32021, 60148 is a payload satellite owned by SpaceX/Seattle (US) in LEO that was launched on Thu, 27 Jun 2024 UTC via an FALCON 9 launch vehicle from the Air Force Eastern Test Range (AFETR). Payload-class satellites include a variety of spacecraft equipped with specific instruments for various scientific and technological missions. These include communications satellites like Starlink; space stations such as the ISS; scientific satellites like the Hubble; Earth observation satellites from companies like Planet Labs, Umbra, and HawkEye 360; GPS; miniature CubeSats for education and research; and military/defense satellites.

Loading next visibility...
Identifier
60148, 2024-120P
Orbit
LEO
Country
Flag of USUS
Related business
Manufacturer
SpaceX/Seattle
Mission
Operational Commercial Communications
Bus & Motor
STARLINK V2M, Unknown motor
Mass
730 kg wet, ~700 kg dry
Launch date (UTC)
2024-06-27 (2 years ago)
Launch vehicle
FALCON 9
Launch site
Air Force Eastern Test Range (AFETR)
Object type
Payload
Rocket body
Debris
Shape & HBR
Box + 2 Pan, 17.7 m
Radar Cross Section
33.884 m², Large (>1 m²)

Expand to show TLE details & history
Last TLE update: 11 hours ago

TLE from 11 hours ago
0 STARLINK-32021
1 60148U 24120P   26171.43202852  .00000736  00000-0  35471-4 0  9991
2 60148  53.1597 192.2366 0000928  81.4528 278.6578 15.31702009112338
Epoch: 2026-06-20T10:22Z
TLE epoch observation values (Epoch: 2026-06-20T10:22:07.264Z)
Latitude
-0.00005°
Longitude
128.05956°
Altitude
471.539 km
Speed
7.632 km/s
True Right ascension
12h 48m 56s
True Declination
0° 00' 00"
Sunlit
Object was in daylight at epoch
Visualization orbit readout
Latitude
Unknown
Longitude
Unknown
Altitude
Unknown
Speed
Unknown
Apparent Right ascension
Unknown
Apparent Declination
Unknown
Sunlit
N/A
Visualization observer readout
Local Sidereal Time
08:32:39
Azimuth
Unknown
Elevation
Unknown
Doppler factor
Unknown
Orbital elements
Apogee altitude
471.626 km
Perigee altitude
470.355 km
Semi-major axis
6,849.128 km
Eccentricity
0.00009
Inclination
53.1597°
RAAN
192.2366°
Arg. of periapsis
81.4528°
True anomaly
278.64729°
Mean anomaly
278.6578°
Eccentric anomaly
278.65254°
Mean motion
3.82904 °/min
Orbital period
94.02 mins
BSTAR
0.000035471
Loading maneuver chart data...
Computing Atmospheric mass density...
Loading historical data...
Loading historical data...
Loading historical data...
Loading historical data...
Loading historical data...
Loading historical data...
Loading historical data...

Documentation

Showing up to 5 results
|